When you browse on this site, cookies collect data to enhance your experience and personalize the content and advertising you see.
Visit our Privacy Policy to learn more. By continuing to use the site, you agree to this use of cookies and data.
  • In Sweden
  • List of Countries
  • For 7 days
  • Water Temperature
  • Satellite Maps
  • Weather Map
  • Weather Widgets
  • user-avatar
    Login

    Hourly Weather Piksev

    Today, 22 May, Wednesday

    Time Temperature Precipitation Wind Pressure Humidity
    00:00 +13°C° 0 mm 2 mps 749 mmHg 57%
    01:00 +11°C° 0 mm 3 mps 749 mmHg 62%
    02:00 +11°C° 0 mm 3 mps 748 mmHg 66%
    03:00 +12°C° 0 mm 2 mps 748 mmHg 70%
    04:00 +13°C° 0 mm 2 mps 748 mmHg 74%
    05:00 +12°C° 0 mm 3 mps 748 mmHg 78%
    06:00 +13°C° 0 mm 3 mps 748 mmHg 83%
    07:00 +15°C° 0 mm 4 mps 747 mmHg 77%
    08:00 +18°C° 0 mm 4 mps 747 mmHg 72%
    09:00 +20°C° 0 mm 5 mps 747 mmHg 67%
    10:00 +20°C° 0.4 mm 5 mps 746 mmHg 64%
    11:00 +21°C° 0.4 mm 5 mps 746 mmHg 62%
    12:00 +22°C° 0.4 mm 6 mps 745 mmHg 59%
    13:00 +22°C° 0.5 mm 6 mps 745 mmHg 58%
    14:00 +22°C° 0.5 mm 5 mps 745 mmHg 57%
    15:00 +23°C° 0.5 mm 5 mps 745 mmHg 56%
    16:00 +22°C° 0.2 mm 4 mps 744 mmHg 60%
    17:00 +22°C° 0.2 mm 4 mps 744 mmHg 64%
    18:00 +21°C° 0.2 mm 3 mps 744 mmHg 68%
    19:00 +20°C° 0 mm 3 mps 744 mmHg 73%
    20:00 +18°C° 0 mm 3 mps 744 mmHg 77%
    21:00 +15°C° 0 mm 4 mps 744 mmHg 82%
    22:00 +15°C° 0 mm 4 mps 743 mmHg 84%
    23:00 +14°C° 0 mm 4 mps 743 mmHg 86%

    Tomorrow, 23 May, Thursday

    Time Temperature Precipitation Wind Pressure Humidity
    00:00 +14°C° 0 mm 4 mps 743 mmHg 88%
    01:00 +14°C° 0 mm 4 mps 743 mmHg 86%
    02:00 +13°C° 0 mm 4 mps 743 mmHg 83%
    03:00 +13°C° 0 mm 4 mps 742 mmHg 81%
    04:00 +13°C° 0 mm 4 mps 742 mmHg 79%
    05:00 +13°C° 0 mm 4 mps 742 mmHg 77%
    06:00 +13°C° 0 mm 4 mps 742 mmHg 75%
    07:00 +15°C° 0 mm 4 mps 741 mmHg 71%
    08:00 +18°C° 0 mm 4 mps 741 mmHg 67%
    09:00 +19°C° 0 mm 5 mps 741 mmHg 64%
    10:00 +20°C° 0 mm 5 mps 740 mmHg 60%
    11:00 +21°C° 0 mm 5 mps 740 mmHg 57%
    12:00 +22°C° 0 mm 5 mps 740 mmHg 53%
    13:00 +23°C° 0 mm 5 mps 739 mmHg 53%
    14:00 +23°C° 0 mm 5 mps 739 mmHg 54%
    15:00 +23°C° 0 mm 5 mps 739 mmHg 54%
    16:00 +23°C° 0 mm 4 mps 738 mmHg 59%
    17:00 +22°C° 0 mm 4 mps 738 mmHg 64%
    18:00 +22°C° 0 mm 3 mps 738 mmHg 69%
    19:00 +20°C° 0.2 mm 2 mps 738 mmHg 74%
    20:00 +19°C° 0.2 mm 2 mps 738 mmHg 79%
    21:00 +17°C° 0.2 mm 2 mps 738 mmHg 84%
    22:00 +17°C° 0.1 mm 2 mps 738 mmHg 86%
    23:00 +16°C° 0.1 mm 2 mps 738 mmHg 89%

    Day after tomorrow, 24 May, Friday

    Time Temperature Precipitation Wind Pressure Humidity
    00:00 +16°C° 0.1 mm 2 mps 738 mmHg 91%
    01:00 +15°C° 0 mm 2 mps 738 mmHg 92%
    02:00 +14°C° 0 mm 2 mps 738 mmHg 94%
    03:00 +14°C° 0 mm 2 mps 738 mmHg 96%
    04:00 +13°C° 0 mm 3 mps 739 mmHg 96%
    05:00 +13°C° 0 mm 4 mps 739 mmHg 95%
    06:00 +13°C° 0 mm 5 mps 740 mmHg 95%
    07:00 +13°C° 0 mm 5 mps 740 mmHg 92%
    08:00 +12°C° 0 mm 5 mps 741 mmHg 90%
    09:00 +12°C° 0 mm 5 mps 741 mmHg 88%
    10:00 +14°C° 0 mm 5 mps 742 mmHg 81%
    11:00 +15°C° 0 mm 5 mps 742 mmHg 74%
    12:00 +16°C° 0 mm 5 mps 743 mmHg 67%
    13:00 +17°C° 0 mm 5 mps 743 mmHg 64%
    14:00 +17°C° 0 mm 5 mps 743 mmHg 62%
    15:00 +17°C° 0 mm 5 mps 743 mmHg 60%
    16:00 +18°C° 0 mm 4 mps 744 mmHg 61%
    17:00 +17°C° 0 mm 4 mps 744 mmHg 62%
    18:00 +15°C° 0 mm 4 mps 744 mmHg 64%
    19:00 +14°C° 0 mm 4 mps 744 mmHg 67%
    20:00 +12°C° 0 mm 4 mps 745 mmHg 70%
    21:00 +10°C° 0 mm 4 mps 745 mmHg 73%
    22:00 +10°C° 0 mm 4 mps 746 mmHg 73%
    23:00 +8°C° 0 mm 4 mps 746 mmHg 73%

    25 May, Saturday

    Time Temperature Precipitation Wind Pressure Humidity
    00:00 +7°C° 0 mm 4 mps 746 mmHg 73%
    01:00 +7°C° 0 mm 4 mps 746 mmHg 75%
    02:00 +8°C° 0 mm 3 mps 746 mmHg 76%
    03:00 +7°C° 0 mm 3 mps 747 mmHg 78%
    04:00 +7°C° 0 mm 4 mps 747 mmHg 75%
    05:00 +7°C° 0 mm 5 mps 747 mmHg 71%
    06:00 +8°C° 0 mm 5 mps 747 mmHg 68%
    07:00 +9°C° 0 mm 6 mps 747 mmHg 65%
    08:00 +11°C° 0 mm 6 mps 747 mmHg 61%
    09:00 +13°C° 0 mm 6 mps 747 mmHg 58%
    10:00 +14°C° 0 mm 6 mps 746 mmHg 58%
    11:00 +15°C° 0 mm 6 mps 746 mmHg 57%
    12:00 +16°C° 0 mm 6 mps 746 mmHg 57%
    13:00 +16°C° 0.1 mm 6 mps 745 mmHg 61%
    14:00 +16°C° 0.1 mm 6 mps 745 mmHg 65%
    15:00 +16°C° 0.1 mm 6 mps 745 mmHg 69%
    16:00 +16°C° 0.1 mm 6 mps 744 mmHg 71%
    17:00 +15°C° 0.1 mm 6 mps 744 mmHg 74%
    18:00 +15°C° 0.1 mm 5 mps 743 mmHg 76%
    19:00 +15°C° 0 mm 5 mps 743 mmHg 76%
    20:00 +14°C° 0 mm 5 mps 743 mmHg 76%
    21:00 +13°C° 0 mm 6 mps 743 mmHg 76%
    22:00 +13°C° 0 mm 6 mps 742 mmHg 76%
    23:00 +13°C° 0 mm 6 mps 742 mmHg 75%

    26 May, Sunday

    Time Temperature Precipitation Wind Pressure Humidity
    00:00 +13°C° 0 mm 6 mps 742 mmHg 75%
    01:00 +13°C° 0.1 mm 6 mps 741 mmHg 78%
    02:00 +13°C° 0.1 mm 6 mps 741 mmHg 81%
    03:00 +13°C° 0.1 mm 6 mps 741 mmHg 84%
    04:00 +13°C° 0 mm 6 mps 740 mmHg 87%
    05:00 +14°C° 0 mm 6 mps 740 mmHg 89%
    06:00 +14°C° 0 mm 6 mps 740 mmHg 91%
    07:00 +15°C° 0 mm 6 mps 739 mmHg 90%
    08:00 +16°C° 0 mm 6 mps 739 mmHg 88%
    09:00 +17°C° 0 mm 6 mps 739 mmHg 86%
    10:00 +19°C° 0.4 mm 6 mps 739 mmHg 81%
    11:00 +20°C° 0.4 mm 6 mps 738 mmHg 77%
    12:00 +22°C° 0.4 mm 6 mps 738 mmHg 72%
    13:00 +21°C° 0.6 mm 5 mps 738 mmHg 77%
    14:00 +20°C° 0.6 mm 5 mps 737 mmHg 81%
    15:00 +19°C° 0.6 mm 4 mps 737 mmHg 86%
    16:00 +18°C° 0.3 mm 4 mps 737 mmHg 86%
    17:00 +18°C° 0.3 mm 3 mps 737 mmHg 87%
    18:00 +18°C° 0.3 mm 2 mps 736 mmHg 88%
    19:00 +17°C° 0.9 mm 2 mps 736 mmHg 89%
    20:00 +17°C° 0.9 mm 3 mps 736 mmHg 90%
    21:00 +17°C° 0.9 mm 3 mps 736 mmHg 91%
    22:00 +16°C° 0.3 mm 3 mps 736 mmHg 92%
    23:00 +16°C° 0.3 mm 3 mps 736 mmHg 94%

    27 May, Monday

    Time Temperature Precipitation Wind Pressure Humidity
    00:00 +14°C° 0.3 mm 3 mps 736 mmHg 95%
    01:00 +14°C° 0.5 mm 3 mps 736 mmHg 96%
    02:00 +14°C° 0.5 mm 3 mps 736 mmHg 97%
    03:00 +14°C° 0.5 mm 3 mps 736 mmHg 97%
    04:00 +14°C° 0.1 mm 3 mps 737 mmHg 96%
    05:00 +14°C° 0.1 mm 4 mps 737 mmHg 95%
    06:00 +14°C° 0.1 mm 4 mps 737 mmHg 93%
    07:00 +15°C° 0 mm 5 mps 738 mmHg 87%
    08:00 +16°C° 0 mm 6 mps 738 mmHg 81%
    09:00 +17°C° 0 mm 6 mps 738 mmHg 74%
    10:00 +17°C° 0.1 mm 6 mps 738 mmHg 74%
    11:00 +17°C° 0.1 mm 6 mps 739 mmHg 73%
    12:00 +17°C° 0.1 mm 6 mps 739 mmHg 73%
    13:00 +17°C° 0.1 mm 7 mps 739 mmHg 69%
    14:00 +18°C° 0.1 mm 7 mps 739 mmHg 65%
    15:00 +18°C° 0.1 mm 8 mps 739 mmHg 61%
    16:00 +17°C° 0.4 mm 7 mps 739 mmHg 65%
    17:00 +16°C° 0.4 mm 7 mps 739 mmHg 69%
    18:00 +15°C° 0.4 mm 6 mps 740 mmHg 72%
    19:00 +13°C° 0 mm 6 mps 740 mmHg 75%
    20:00 +12°C° 0 mm 5 mps 741 mmHg 78%
    21:00 +9°C° 0 mm 5 mps 741 mmHg 80%
    22:00 +9°C° 0 mm 5 mps 742 mmHg 80%
    23:00 +8°C° 0 mm 5 mps 742 mmHg 80%
    Show more